Flag for Canada Weather past 2 weeks in Gatineau, Quebec, Canada

Now
41 °F

Passing clouds.


Feels Like: 36 °F
Forecast: 45 / 67 °F
Wind: 7 mph from Northwest

Location: Ottawa Int'L. Ont.

Current Time: Apr 28, 2015 at 6:47:35 AM

Latest Report: Apr 28, 2015 at 6:00 AM


Visibility: 15 mi

Pressure: 29.91 "Hg

Humidity: 87%

Dew point: 37 °F

Location of GatineauLocation

Historic Weather in Gatineau — Graph

°F

Gatineau temperature yesterday

Maximum temperature yesterday: 59 °F (at 4:00 PM)
Minimum temperature yesterday: 39 °F (at 2:00 AM)
Average temperature yesterday: 49 °F

Past Weeks' High & Low Weather Summary

 TemperatureHumidityPressure
High73 °F (Apr 13, 4:00 PM)100% (Apr 20, 11:00 AM)30.45 "Hg (Apr 20, 11:00 AM)
Low28 °F (Apr 16, 4:00 AM)13% (Apr 15, 4:00 PM)29.48 "Hg (Apr 21, 5:00 AM)
Average46 °F57%29.90 "Hg
* Reported Apr 13 6:00 AM — Apr 28 6:00 AM, Gatineau, Weather by CustomWeather, © 2015

Note: Actual official high and low records may vary slightly from our data, if they occured in-between our weather recording intervals... More about our weather records

Advertising

Gatineau weather history for previous 24 hours

 ConditionsComfort  
Time TempWeatherWind HumidityBarometerVisibility
6:00 AM
Tue, Apr 28
41 °FPassing clouds.7 mph87%29.91 "Hg15 mi
5:00 AM43 °FPassing clouds.8 mph87%29.90 "Hg15 mi
4:00 AM48 °FPassing clouds.6 mph76%29.89 "Hg15 mi
3:00 AM46 °FPassing clouds.9 mph82%29.87 "Hg15 mi
2:00 AM50 °FPassing clouds.10 mph71%29.86 "Hg15 mi
1:00 AM52 °FOvercast.9 mph67%29.87 "Hg15 mi
12:00 AM52 °FOvercast.7 mph72%29.87 "Hg15 mi
11:00 PM
Mon, Apr 27
54 °FOvercast.8 mph67%29.88 "Hg15 mi
10:00 PM54 °FPartly cloudy.10 mph67%29.87 "Hg15 mi
9:00 PM55 °FPartly sunny.10 mph63%29.86 "Hg15 mi
8:50 PM54 °FPartly sunny.10 mph67%29.85 "Hg15 mi
8:00 PM55 °FBroken clouds.14 mph59%29.84 "Hg15 mi
7:00 PM57 °FBroken clouds.16 mph51%29.83 "Hg15 mi
6:03 PM57 °FSprinkles. Partly sunny.13 mph55%29.81 "Hg15 mi
5:00 PM59 °FPartly sunny.13 mph48%29.80 "Hg15 mi
4:00 PM59 °FPartly sunny.5 mph48%29.79 "Hg15 mi
3:00 PM57 °FPartly sunny.12 mph51%29.79 "Hg15 mi
2:00 PM55 °FBroken clouds.15 mph51%29.79 "Hg15 mi
1:00 PM55 °FBroken clouds.16 mph55%29.78 "Hg15 mi
12:00 PM55 °FBroken clouds.12 mph55%29.78 "Hg15 mi
11:00 AM52 °FScattered clouds.12 mph62%29.79 "Hg15 mi
10:00 AM48 °FBroken clouds.7 mph71%29.79 "Hg15 mi
9:00 AM45 °FBroken clouds.8 mph81%29.78 "Hg15 mi
8:00 AM43 °FPartly sunny.7 mph81%29.78 "Hg15 mi
7:00 AM39 °FOvercast.7 mph87%29.77 "Hg15 mi
6:00 AM39 °FOvercast.7 mph87%29.75 "Hg15 mi
Weather by CustomWeather, © 2015

See weather overviewHow to use our weather pages